Kaneohe MCBH, HI

3:17 AM HST on April 25, 2017 (GMT -1000)
Kaneohe Bay Marine Corps Air Facility

Weather History for PHNG - December, 2012

Change the Weather History Date:

Thursday, December 20, 2012

  Actual Average Record
Temperature  
Mean Temperature 75 °F -  
Max Temperature 77 °F 76 °F 81 °F (2004)
Min Temperature 73 °F 67 °F 54 °F (2005)
Cooling Degree Days 10    
Growing Degree Days 25 (Base 50)    
Moisture  
Dew Point 65 °F    
Average Humidity 72    
Maximum Humidity 81    
Minimum Humidity 62    
Precipitation  
Precipitation 0.00 in - - ()
Sea Level Pressure  
Sea Level Pressure 30.05 in    
Wind  
Wind Speed 14 mph (ENE)    
Max Wind Speed 17 mph    
Max Gust Speed 30 mph    
Visibility 9 miles    
Events Rain    
Averages and records for this station are not official NWS values.
T = Trace of Precipitation, MM = Missing Value Source: NWS Daily Summary

Daily Weather History Graph

Daily Weather History Graph

Search for Another Location

Airport or City:

Trip Planner

Search our weather history database for the weather conditions in past years. The results will help you decide how hot, cold, wet, or windy it might be!

Date:

Astronomy

Dec. 20, 2012 Rise Set
Actual Time 7:04 AM HST 5:53 PM HST
Civil Twilight 6:39 AM HST 6:18 PM HST
Nautical Twilight 6:12 AM HST 6:46 PM HST
Astronomical Twilight 5:44 AM HST 7:13 PM HST
Moon 12:44 PM HST (12/20) 12:39 AM HST (12/20)
Length of Visible Light 11h 38m
Length of Day
10h 49m
First Quarter, 57% of the Moon is Illuminated
Dec 20
First Quarter
Dec 28
Full
Jan 4
Last Quarter
Jan 11
New
Jan 18
First Quarter

Hourly Weather History & Observations

Time (HST) Temp. Dew Point Humidity Pressure Visibility Wind Dir Wind Speed Gust Speed Precip Events Conditions
12:17 AM - - N/A% 30.08 in 6.2 mi ENE 16.1 mph 26.5 mph N/A   Mostly Cloudy
12:27 AM - - N/A% 30.08 in 6.2 mi ENE 15.0 mph 26.5 mph N/A   Mostly Cloudy
12:57 AM - - N/A% 30.07 in 10.0 mi East 15.0 mph 29.9 mph 0.00 in   Mostly Cloudy
1:57 AM - - N/A% 30.06 in 10.0 mi East 15.0 mph 26.5 mph 0.00 in   Overcast
2:13 AM - - N/A% 30.06 in 6.2 mi East 16.1 mph 28.8 mph 0.00 in Rain Light Rain
2:20 AM - - N/A% 30.06 in 6.2 mi East 10.4 mph 26.5 mph 0.00 in Rain Light Rain
2:57 AM - - N/A% 30.03 in 10.0 mi East 15.0 mph 25.3 mph 0.00 in   Overcast
3:57 AM - - N/A% 30.03 in 10.0 mi East 16.1 mph 27.6 mph N/A   Overcast
4:57 AM 73.4 °F 66.9 °F 80% 30.02 in 10.0 mi ENE 10.4 mph 21.9 mph N/A   Overcast
5:57 AM 73.4 °F 66.0 °F 78% 30.04 in 10.0 mi ENE 11.5 mph 23.0 mph N/A   Overcast
6:57 AM 73.4 °F 62.1 °F 68% 30.05 in 10.0 mi ENE 12.7 mph 21.9 mph 0.00 in   Overcast
7:29 AM 73.4 °F 66.2 °F 78% 30.07 in 6.2 mi ENE 9.2 mph 27.6 mph 0.00 in Rain Light Rain
7:44 AM 73.4 °F 66.2 °F 78% 30.08 in 6.2 mi East 11.5 mph 27.6 mph 0.00 in Rain Light Rain
7:57 AM 73.4 °F 66.0 °F 78% 30.07 in 10.0 mi East 15.0 mph 26.5 mph 0.00 in   Overcast
8:57 AM 73.4 °F 64.0 °F 72% 30.07 in 10.0 mi ENE 13.8 mph 23.0 mph N/A   Overcast
9:57 AM 75.2 °F 64.0 °F 68% 30.08 in 10.0 mi ENE 15.0 mph 23.0 mph N/A   Mostly Cloudy
10:57 AM 77.0 °F 63.0 °F 62% 30.07 in 10.0 mi ENE 12.7 mph 23.0 mph N/A   Overcast
11:57 AM 77.0 °F 64.0 °F 64% 30.05 in 10.0 mi ENE 16.1 mph 24.2 mph 0.00 in   Overcast
12:57 PM 77.0 °F 64.9 °F 66% 30.02 in 10.0 mi NE 13.8 mph 25.3 mph N/A   Overcast
1:57 PM 77.0 °F 64.0 °F 64% 30.01 in 10.0 mi ENE 16.1 mph 29.9 mph 0.00 in   Overcast
2:12 PM 77.0 °F 69.8 °F 78% 30.02 in 6.2 mi NE 9.2 mph - 0.00 in   Overcast
2:57 PM 75.2 °F 69.1 °F 81% 29.99 in 10.0 mi ENE 17.3 mph 28.8 mph 0.00 in   Overcast
3:57 PM 75.2 °F 66.0 °F 73% 29.99 in 10.0 mi ENE 13.8 mph 24.2 mph N/A   Mostly Cloudy
4:57 PM 75.2 °F 64.9 °F 70% 30.00 in 10.0 mi ENE 15.0 mph 24.2 mph N/A   Mostly Cloudy
5:57 PM 73.4 °F 63.0 °F 70% 30.02 in 10.0 mi ENE 13.8 mph 21.9 mph N/A   Overcast
6:57 PM 73.4 °F 64.0 °F 72% 30.04 in 10.0 mi East 11.5 mph 25.3 mph 0.00 in   Overcast
7:57 PM 73.4 °F 64.9 °F 75% 30.06 in 10.0 mi East 11.5 mph 21.9 mph 0.00 in   Mostly Cloudy
8:57 PM 73.4 °F 64.0 °F 72% 30.07 in 10.0 mi East 13.8 mph 25.3 mph N/A   Partly Cloudy
9:57 PM 73.4 °F 63.0 °F 70% 30.08 in 10.0 mi East 11.5 mph 20.7 mph N/A   Scattered Clouds
10:57 PM 73.4 °F 63.0 °F 70% 30.07 in 10.0 mi East 13.8 mph 23.0 mph N/A   Partly Cloudy
11:57 PM 73.4 °F 62.1 °F 68% 30.07 in 10.0 mi East 10.4 mph 19.6 mph N/A   Partly Cloudy